| time (UTC) | temp C | wind direction | speed KPH | gust KPH | rain 1hr cm | rain 24hr cm | rain mn cm | humidity % | barometer mb |
| 20260905145317 | 19 | 293 | 8.0 | 14.5 | 0.00 | 0.15 | 0.00 | 67 | 1019.8 |
| 20260905144317 | 20 | 0 | 9.7 | 14.5 | 0.00 | 0.15 | 0.00 | 63 | 1019.5 |
| 20260905143317 | 20 | 270 | 8.0 | 17.7 | 0.00 | 0.15 | 0.00 | 59 | 1019.5 |
| 20260905142317 | 20 | 270 | 16.1 | 32.2 | 0.00 | 0.15 | 0.00 | 57 | 1019.2 |
| 20260905141317 | 20 | 270 | 29.0 | 40.2 | 0.00 | 0.15 | 0.00 | 58 | 1019.2 |
| 20260905140317 | 20 | 270 | 11.3 | 19.3 | 0.00 | 0.15 | 0.00 | 56 | 1019.0 |
| 20260905135317 | 20 | 293 | 22.5 | 41.8 | 0.00 | 0.23 | 0.00 | 58 | 1018.8 |
| 20260905134317 | 20 | 293 | 12.9 | 24.1 | 0.00 | 0.23 | 0.00 | 56 | 1018.7 |
| 20260905133317 | 21 | 270 | 16.1 | 29.0 | 0.00 | 0.23 | 0.00 | 53 | 1018.7 |
| 20260905132317 | 21 | 270 | 20.9 | 37.0 | 0.00 | 0.23 | 0.00 | 55 | 1018.6 |
| 20260905131317 | 21 | 270 | 12.9 | 25.7 | 0.00 | 0.23 | 0.00 | 58 | 1018.5 |
| 20260905130317 | 20 | 293 | 17.7 | 33.8 | 0.00 | 0.23 | 0.00 | 60 | 1018.3 |
| 20260905125317 | 20 | 270 | 9.7 | 24.1 | 0.00 | 0.38 | 0.00 | 64 | 1018.1 |
| 20260905124317 | 20 | 270 | 16.1 | 22.5 | 0.00 | 0.38 | 0.00 | 64 | 1018.0 |
| 20260905123337 | 20 | 270 | 19.3 | 32.2 | 0.00 | 0.38 | 0.00 | 65 | 1018.1 |
| 20260905122317 | 20 | 270 | 20.9 | 32.2 | 0.00 | 0.38 | 0.00 | 66 | 1017.8 |
| 20260905121317 | 20 | 270 | 19.3 | 33.8 | 0.00 | 0.38 | 0.00 | 66 | 1017.9 |
| 20260905120337 | 20 | 270 | 17.7 | 29.0 | 0.00 | 0.38 | 0.00 | 67 | 1017.9 |
| 20260905115337 | 19 | 248 | 11.3 | 32.2 | 0.00 | 0.38 | 0.00 | 67 | 1018.1 |
| 20260905114317 | 19 | 270 | 12.9 | 19.3 | 0.00 | 0.38 | 0.00 | 69 | 1018.2 |
| 20260905113317 | 20 | 270 | 19.3 | 37.0 | 0.00 | 0.38 | 0.00 | 65 | 1018.0 |
| 20260905112317 | 20 | 270 | 16.1 | 22.5 | 0.00 | 0.38 | 0.00 | 67 | 1017.9 |
| 20260905111317 | 19 | 248 | 17.7 | 33.8 | 0.00 | 0.38 | 0.00 | 66 | 1017.8 |
| 20260905110317 | 19 | 270 | 24.1 | 35.4 | 0.00 | 0.38 | 0.00 | 68 | 1017.7 |
| 20260905105317 | 18 | 270 | 14.5 | 20.9 | 0.00 | 0.41 | 0.00 | 75 | 1017.8 |
| 20260905104317 | 18 | 293 | 9.7 | 12.9 | 0.00 | 0.41 | 0.00 | 74 | 1017.7 |
| 20260905103317 | 18 | 270 | 9.7 | 17.7 | 0.00 | 0.41 | 0.00 | 76 | 1017.7 |
| 20260905102337 | 17 | 270 | 11.3 | 17.7 | 0.00 | 0.41 | 0.00 | 79 | 1017.8 |
| 20260905101317 | 17 | 270 | 9.7 | 14.5 | 0.00 | 0.41 | 0.00 | 82 | 1018.0 |
| 20260905100317 | 17 | 270 | 14.5 | 20.9 | 0.00 | 0.41 | 0.00 | 79 | 1018.0 |
| 20260905095357 | 18 | 293 | 19.3 | 29.0 | 0.00 | 0.41 | 0.00 | 74 | 1017.9 |
| 20260905094317 | 18 | 270 | 17.7 | 29.0 | 0.00 | 0.41 | 0.00 | 72 | 1017.8 |
| 20260905093357 | 18 | 270 | 16.1 | 22.5 | 0.00 | 0.41 | 0.00 | 73 | 1017.7 |
| 20260905092317 | 18 | 270 | 17.7 | 25.7 | 0.00 | 0.41 | 0.00 | 73 | 1017.6 |
| 20260905091357 | 18 | 270 | 20.9 | 33.8 | 0.00 | 0.41 | 0.00 | 74 | 1017.5 |
| 20260905090337 | 18 | 248 | 11.3 | 25.7 | 0.00 | 0.41 | 0.00 | 75 | 1017.5 |
| 20260905085317 | 18 | 270 | 14.5 | 22.5 | 0.00 | 0.41 | 0.00 | 75 | 1017.4 |
| 20260905084337 | 17 | 293 | 22.5 | 35.4 | 0.00 | 0.41 | 0.00 | 75 | 1017.5 |
| 20260905083317 | 17 | 270 | 17.7 | 25.7 | 0.00 | 0.41 | 0.00 | 75 | 1017.3 |
| 20260905082317 | 18 | 270 | 12.9 | 19.3 | 0.00 | 0.41 | 0.00 | 77 | 1017.1 |
| 20260905081317 | 17 | 270 | 6.4 | 9.7 | 0.00 | 0.41 | 0.00 | 79 | 1017.0 |
| 20260905080337 | 17 | 270 | 17.7 | 24.1 | 0.00 | 0.41 | 0.00 | 79 | 1017.0 |
| 20260905075317 | 17 | 225 | 9.7 | 14.5 | 0.00 | 0.41 | 0.00 | 81 | 1016.9 |
| 20260905074317 | 16 | 270 | 8.0 | 12.9 | 0.00 | 0.41 | 0.00 | 81 | 1016.8 |
| 20260905073337 | 16 | 270 | 11.3 | 16.1 | 0.00 | 0.41 | 0.00 | 81 | 1016.8 |
| 20260905072337 | 16 | 270 | 9.7 | 20.9 | 0.00 | 0.41 | 0.00 | 82 | 1016.7 |
| 20260905071317 | 16 | 270 | 11.3 | 19.3 | 0.00 | 0.41 | 0.00 | 82 | 1016.6 |
| 20260905070317 | 16 | 270 | 12.9 | 17.7 | 0.00 | 0.41 | 0.00 | 82 | 1016.6 |
| 20260905065317 | 16 | 248 | 11.3 | 27.4 | 0.00 | 0.41 | 0.00 | 83 | 1016.4 |
| 20260905064428 | 16 | 270 | 9.7 | 32.2 | 0.00 | 0.41 | 0.00 | 83 | 1016.3 |
| 20260905064217 | 16 | 270 | 16.1 | 30.6 | 0.00 | 0.41 | 0.00 | 83 | 1016.4 |
| 20260905063217 | 16 | 270 | 9.7 | 14.5 | 0.00 | 0.41 | 0.00 | 84 | 1016.3 |
| 20260905062217 | 15 | 270 | 8.0 | 11.3 | 0.00 | 0.41 | 0.00 | 85 | 1016.1 |
| 20260905061217 | 15 | 270 | 6.4 | 9.7 | 0.00 | 0.41 | 0.00 | 86 | 1015.9 |
| 20260905060217 | 15 | 248 | 9.7 | 14.5 | 0.00 | 0.41 | 0.00 | 87 | 1016.1 |
| 20260905055217 | 15 | 248 | 6.4 | 11.3 | 0.00 | 0.41 | 0.00 | 88 | 1015.9 |
| 20260905054240 | 15 | 270 | 3.2 | 8.0 | 0.00 | 0.41 | 0.00 | 88 | 1015.9 |
| 20260905053217 | 14 | 270 | 8.0 | 12.9 | 0.00 | 0.41 | 0.00 | 89 | 1015.8 |
| 20260905052217 | 14 | 270 | 6.4 | 9.7 | 0.00 | 0.41 | 0.00 | 90 | 1015.8 |
| 20260905051217 | 14 | 248 | 6.4 | 11.3 | 0.00 | 0.41 | 0.00 | 90 | 1015.7 |
| 20260905050217 | 14 | 270 | 8.0 | 14.5 | 0.00 | 0.41 | 0.00 | 90 | 1015.6 |
| 20260905045217 | 14 | 248 | 6.4 | 9.7 | 0.00 | 0.41 | 0.00 | 90 | 1015.4 |
| 20260905044217 | 14 | 270 | 4.8 | 8.0 | 0.00 | 0.41 | 0.00 | 90 | 1015.4 |
| 20260905043217 | 14 | 270 | 8.0 | 11.3 | 0.00 | 0.41 | 0.00 | 90 | 1015.4 |
| 20260905042237 | 14 | 270 | 4.8 | 9.7 | 0.00 | 0.41 | 0.00 | 90 | 1015.4 |
| 20260905041217 | 14 | 270 | 6.4 | 9.7 | 0.00 | 0.41 | 0.00 | 91 | 1015.3 |
| 20260905040217 | 14 | 270 | 9.7 | 14.5 | 0.00 | 0.41 | 0.00 | 90 | 1015.4 |
| 20260905035217 | 14 | 270 | 6.4 | 11.3 | 0.00 | 0.41 | 0.00 | 89 | 1015.4 |
| 20260905034217 | 15 | 248 | 4.8 | 9.7 | 0.00 | 0.41 | 0.00 | 88 | 1015.2 |
| 20260905033217 | 15 | 270 | 11.3 | 14.5 | 0.00 | 0.41 | 0.00 | 87 | 1015.2 |
| 20260905032217 | 15 | 270 | 6.4 | 11.3 | 0.00 | 0.41 | 0.00 | 87 | 1015.2 |
| 20260905031217 | 15 | 270 | 8.0 | 17.7 | 0.00 | 0.41 | 0.00 | 87 | 1015.2 |
| 20260905030217 | 15 | 270 | 9.7 | 14.5 | 0.00 | 0.41 | 0.00 | 87 | 1015.1 |
| 20260905025217 | 15 | 270 | 9.7 | 14.5 | 0.00 | 0.41 | 0.00 | 87 | 1014.9 |
| 20260905024257 | 15 | 270 | 8.0 | 14.5 | 0.00 | 0.41 | 0.00 | 87 | 1014.8 |
| 20260905023237 | 15 | 270 | 17.7 | 22.5 | 0.00 | 0.41 | 0.00 | 87 | 1014.7 |
| 20260905022217 | 15 | 293 | 9.7 | 22.5 | 0.00 | 0.41 | 0.00 | 87 | 1014.7 |
| 20260905021217 | 15 | 270 | 12.9 | 20.9 | 0.00 | 0.41 | 0.00 | 87 | 1014.6 |
| 20260905020216 | 15 | 270 | 6.4 | 9.7 | 0.00 | 0.41 | 0.00 | 87 | 1014.6 |
| 20260905015216 | 15 | 270 | 11.3 | 19.3 | 0.00 | 0.41 | 0.00 | 86 | 1014.5 |
| 20260905014217 | 15 | 270 | 9.7 | 14.5 | 0.00 | 0.41 | 0.00 | 86 | 1014.4 |
| 20260905013217 | 15 | 270 | 16.1 | 20.9 | 0.00 | 0.41 | 0.00 | 86 | 1014.4 |
| 20260905012217 | 15 | 270 | 8.0 | 16.1 | 0.00 | 0.41 | 0.00 | 86 | 1014.4 |
| 20260905011217 | 15 | 293 | 9.7 | 17.7 | 0.00 | 0.41 | 0.00 | 86 | 1014.4 |
| 20260905010216 | 15 | 270 | 4.8 | 9.7 | 0.00 | 0.41 | 0.00 | 85 | 1014.4 |
| 20260905005217 | 15 | 248 | 9.7 | 17.7 | 0.00 | 0.41 | 0.00 | 85 | 1014.3 |
| 20260905004237 | 16 | 293 | 14.5 | 19.3 | 0.00 | 0.41 | 0.00 | 85 | 1014.3 |
| 20260905003217 | 15 | 270 | 9.7 | 12.9 | 0.00 | 0.41 | 0.00 | 86 | 1014.3 |
| 20260905002217 | 15 | 270 | 8.0 | 14.5 | 0.00 | 0.41 | 0.00 | 86 | 1014.2 |
| 20260905001216 | 15 | 270 | 8.0 | 12.9 | 0.00 | 0.41 | 0.00 | 85 | 1014.1 |
| 20260905000218 | 15 | 270 | 14.5 | 20.9 | 0.00 | 0.41 | 0.00 | 86 | 1014.1 |
| 20260904235217 | 15 | 270 | 11.3 | 17.7 | 0.00 | 0.41 | 0.00 | 86 | 1014.1 |
| 20260904234217 | 15 | 293 | 12.9 | 22.5 | 0.00 | 0.41 | 0.00 | 86 | 1014.0 |
| 20260904233217 | 15 | 270 | 8.0 | 11.3 | 0.00 | 0.41 | 0.00 | 86 | 1013.9 |
| 20260904232217 | 15 | 270 | 8.0 | 11.3 | 0.00 | 0.41 | 0.00 | 85 | 1013.8 |
| 20260904231217 | 16 | 270 | 9.7 | 11.3 | 0.00 | 0.41 | 0.00 | 85 | 1013.7 |
| 20260904230217 | 16 | 270 | 12.9 | 16.1 | 0.00 | 0.41 | 0.00 | 85 | 1013.6 |
| 20260904225216 | 16 | 270 | 11.3 | 14.5 | 0.00 | 0.41 | 0.00 | 85 | 1013.5 |
| 20260904224237 | 16 | 270 | 8.0 | 14.5 | 0.00 | 0.41 | 0.00 | 84 | 1013.4 |
| 20260904223217 | 16 | 270 | 8.0 | 16.1 | 0.00 | 0.41 | 0.00 | 84 | 1013.4 |
| 20260904222217 | 16 | 270 | 9.7 | 14.5 | 0.00 | 0.41 | 0.00 | 84 | 1013.3 |
| 20260904221217 | 16 | 270 | 11.3 | 20.9 | 0.00 | 0.41 | 0.00 | 83 | 1013.2 |
| 20260904220217 | 16 | 270 | 9.7 | 12.9 | 0.00 | 0.41 | 0.00 | 83 | 1013.2 |
| 20260904215217 | 16 | 270 | 9.7 | 17.7 | 0.00 | 0.41 | 0.41 | 84 | 1013.1 |
| 20260904214217 | 16 | 270 | 9.7 | 19.3 | 0.00 | 0.41 | 0.41 | 84 | 1012.9 |
| 20260904213217 | 16 | 270 | 6.4 | 11.3 | 0.00 | 0.41 | 0.41 | 85 | 1012.8 |
| 20260904212217 | 16 | 270 | 14.5 | 22.5 | 0.00 | 0.41 | 0.41 | 85 | 1012.7 |
| 20260904211217 | 16 | 270 | 9.7 | 12.9 | 0.00 | 0.41 | 0.41 | 85 | 1012.7 |
| 20260904210217 | 16 | 270 | 11.3 | 16.1 | 0.00 | 0.41 | 0.41 | 86 | 1012.4 |
| 20260904205217 | 17 | 270 | 6.4 | 11.3 | 0.00 | 0.41 | 0.41 | 86 | 1012.4 |
| 20260904204237 | 17 | 293 | 8.0 | 12.9 | 0.00 | 0.41 | 0.41 | 86 | 1012.2 |
| 20260904203217 | 17 | 270 | 4.8 | 8.0 | 0.00 | 0.41 | 0.41 | 86 | 1012.3 |
| 20260904202217 | 17 | 270 | 8.0 | 12.9 | 0.00 | 0.41 | 0.41 | 87 | 1012.3 |
| 20260904201217 | 17 | 270 | 6.4 | 9.7 | 0.00 | 0.41 | 0.41 | 87 | 1012.1 |
| 20260904200217 | 17 | 270 | 9.7 | 12.9 | 0.00 | 0.41 | 0.41 | 87 | 1012.1 |
| 20260904195217 | 17 | 270 | 6.4 | 9.7 | 0.00 | 0.41 | 0.41 | 87 | 1012.0 |
| 20260904194237 | 17 | 270 | 12.9 | 19.3 | 0.00 | 0.41 | 0.41 | 87 | 1011.8 |
| 20260904193217 | 17 | 293 | 6.4 | 8.0 | 0.00 | 0.41 | 0.41 | 87 | 1011.7 |
| 20260904192217 | 17 | 270 | 8.0 | 17.7 | 0.00 | 0.41 | 0.41 | 88 | 1011.6 |
| 20260904191217 | 17 | 270 | 8.0 | 14.5 | 0.00 | 0.41 | 0.41 | 89 | 1011.5 |
| 20260904190257 | 17 | 293 | 4.8 | 8.0 | 0.00 | 0.41 | 0.41 | 89 | 1011.5 |
| 20260904185217 | 17 | 293 | 8.0 | 11.3 | 0.00 | 0.41 | 0.41 | 90 | 1011.2 |
| 20260904184217 | 17 | 270 | 6.4 | 9.7 | 0.00 | 0.41 | 0.41 | 90 | 1011.1 |
| 20260904183217 | 17 | 270 | 9.7 | 14.5 | 0.00 | 0.41 | 0.41 | 90 | 1010.8 |
| 20260904182237 | 17 | 270 | 11.3 | 17.7 | 0.00 | 0.41 | 0.41 | 89 | 1010.9 |
| 20260904181237 | 17 | 270 | 8.0 | 17.7 | 0.00 | 0.41 | 0.41 | 90 | 1010.7 |
| 20260904180217 | 17 | 270 | 9.7 | 17.7 | 0.00 | 0.41 | 0.41 | 91 | 1010.6 |
| 20260904175217 | 17 | 293 | 6.4 | 8.0 | 0.00 | 0.41 | 0.41 | 91 | 1010.4 |
| 20260904174217 | 17 | 248 | 8.0 | 12.9 | 0.00 | 0.41 | 0.41 | 91 | 1010.3 |
| 20260904173217 | 17 | 270 | 11.3 | 14.5 | 0.00 | 0.41 | 0.41 | 91 | 1010.2 |
| 20260904172217 | 17 | 270 | 8.0 | 12.9 | 0.00 | 0.41 | 0.41 | 91 | 1009.8 |
| 20260904171217 | 17 | 270 | 8.0 | 14.5 | 0.00 | 0.41 | 0.41 | 91 | 1009.5 |
| 20260904170217 | 17 | 270 | 14.5 | 22.5 | 0.00 | 0.41 | 0.41 | 91 | 1009.4 |
| 20260904165217 | 17 | 293 | 9.7 | 22.5 | 0.00 | 0.41 | 0.41 | 91 | 1009.3 |
| 20260904164217 | 17 | 270 | 14.5 | 25.7 | 0.00 | 0.41 | 0.41 | 92 | 1009.3 |
| 20260904163217 | 17 | 270 | 14.5 | 24.1 | 0.03 | 0.41 | 0.41 | 92 | 1009.4 |
| 20260904162217 | 17 | 270 | 9.7 | 17.7 | 0.05 | 0.41 | 0.41 | 93 | 1009.5 |
| 20260904161217 | 17 | 270 | 14.5 | 24.1 | 0.05 | 0.41 | 0.41 | 94 | 1009.3 |
| 20260904160217 | 17 | 270 | 9.7 | 16.1 | 0.08 | 0.41 | 0.41 | 94 | 1009.0 |
| 20260904155217 | 17 | 270 | 9.7 | 14.5 | 0.13 | 0.41 | 0.41 | 94 | 1008.9 |
| 20260904154217 | 17 | 270 | 11.3 | 16.1 | 0.15 | 0.41 | 0.41 | 94 | 1008.7 |
| 20260904153217 | 17 | 270 | 16.1 | 22.5 | 0.13 | 0.38 | 0.38 | 94 | 1009.0 |
| 20260904152217 | 17 | 270 | 11.3 | 17.7 | 0.10 | 0.36 | 0.36 | 94 | 1008.4 |
| 20260904151237 | 17 | 270 | 17.7 | 27.4 | 0.10 | 0.33 | 0.33 | 93 | 1008.9 |
| 20260904150217 | 17 | 225 | 8.0 | 12.9 | 0.05 | 0.30 | 0.30 | 92 | 1009.0 |